This demonstration page uses our WeatherBlox Daily Observations layout. Learn more.

Left ArrowRight Arrow

41.86663, -103.66717

Hourly Observations for March 31, 2016

Temp ( °F °C ) Dew Point ( °F °C ) Humidity (%) Winds ( mph kmh ) Pressure ( in mb ) Visibility ( mi km ) Precip ( " mm )
12:53 am 00:53 Cloudy 35 1.7 30 -1.1 82 82 WNW 12 19 29.79 1009 10 16 N/A
1:53 am 01:53 Cloudy 34 1.1 30 -1.1 85 85 WNW 13 20 29.79 1009 10 16 N/A
2:53 am 02:53 Cloudy 34 1.1 29 -1.7 82 82 W 12 19 29.77 1008 10 16 N/A
3:53 am 03:53 Cloudy 34 1.1 30 -1.1 85 85 WNW 7 11 29.77 1008 10 16 N/A
4:32 am 04:32 Cloudy with Light Rain 36 2 30 -1 81 81 WNW 9 15 29.77 1008 10 16 N/A
4:53 am 04:53 Cloudy with Light Snow 35 1.7 32 undefined 89 89 W 12 19 29.76 1008 10 16 N/A
5:53 am 05:53 Cloudy 35 1.7 33 0.6 93 93 WNW 15 24 29.79 1009 10 16 N/A
6:34 am 06:34 Cloudy 37 3 30 -1 75 75 NNW 26 43 29.83 1010 10 16 N/A
6:53 am 06:53 Mostly Cloudy 36 2.2 30 -1.1 79 79 NNW 30 48 29.82 1010 10 16 N/A
7:53 am 07:53 Sunny 35 1.7 28 -2.2 76 76 NNW 29 46 29.86 1011 10 16 N/A
8:53 am 08:53 Sunny 36 2.2 27 -2.8 70 70 NNW 29 46 29.88 1012 10 16 N/A
9:53 am 09:53 Partly Cloudy 36 2.2 26 -3.3 67 67 NNW 21 33 29.93 1014 10 16 N/A
10:53 am 10:53 Mostly Cloudy 37 2.8 25 -3.9 62 62 NNW 33 54 29.94 1014 10 16 N/A
11:53 am 11:53 Cloudy 38 3.3 25 -3.9 60 60 NNW 32 52 29.95 1014 10 16 N/A
12:53 pm 12:53 Mostly Cloudy 41 5 26 -3.3 55 55 NW 30 48 29.94 1014 10 16 N/A
1:53 pm 13:53 Mostly Cloudy 40 4.4 25 -3.9 55 55 NW 25 41 29.95 1014 10 16 N/A
2:53 pm 14:53 Mostly Cloudy 43 6.1 26 -3.3 51 51 NW 26 43 29.94 1014 10 16 N/A
3:53 pm 15:53 Mostly Sunny 43 6.1 24 -4.4 47 47 NW 28 44 29.93 1014 10 16 N/A
4:53 pm 16:53 Sunny 43 6.1 24 -4.4 47 47 NW 31 50 29.93 1014 10 16 N/A
5:53 pm 17:53 Sunny 41 5 26 -3.3 55 55 NW 22 35 29.96 1014 10 16 N/A
6:53 pm 18:53 Partly Cloudy 37 2.8 28 -2.2 70 70 NNW 20 31 29.98 1015 10 16 N/A
7:53 pm 19:53 Windy with Snow Likely 35 1.7 29 -1.7 78 78 NNW 20 31 30.01 1016 7 11 N/A
8:53 pm 20:53 Cloudy 34 1.1 30 -1.1 85 85 NW 13 20 30.05 1018 10 16 N/A
9:53 pm 21:53 Clear 33 0.6 30 -1.1 89 89 WNW 10 17 30.05 1018 10 16 N/A
10:53 pm 22:53 Mostly Cloudy 33 0.6 31 -0.6 92 92 NW 8 13 30.06 1018 10 16 N/A
11:53 pm 23:53 Mostly Cloudy 33 0.6 29 -1.7 85 85 W 12 19 30.07 1018 10 16 N/A

Powered by AerisWeather